Content
SEND FEEDBACK

Daily
Averages
Monthly
Summary
United States of America

HYDE PARK, UTAH


Home > North America > United States > Utah
Elevation: 1418 meters     Latitude: 41 45N     Longitude: 111 49W

WEATHER
 
SELECT A DAY
Number of Records: 170,093;   Date Range: 1/5/95 - 9/26/14
 
SHARE

PRINT THIS DATA

[ ← Previous Day ]
WEATHER ALMANAC - 23 JANUARY, 2013
[ Next Day → ]
[ °F ]   °C
Weather ElementAverageHighLow
Temperature-19 °C-12.2 °C (3:51 pm)-23.3 °C (5:51 am)
Dewpoint-21.4 °C-15.6 °C (3:51 pm)-26.1 °C (5:51 am)
Humidity82 %87 % (7:51 am)76 % (3:51 pm)
Barometer1032.8 hPa1038.6 hPa (8:51 am)1025.7 hPa (5:44 pm)
Wind Speed4 km/h13 km/h (2:51 pm)
Weather ElementAverage
Visibility3.1 km
Wind DirectionESE (106.8 °)

Weather ElementTotal
Precipitation---
Heating Degree Days36.1 (Base 18.3)
Averaged from 38 records on 23 January, 2013
WEATHER CONDITIONS BREAKOUT
WIND DIRECTION BREAKOUT
WEATHER BY HOUR - 23 JANUARY, 2013
[ °F ]   °C
Local TimeTemperatureDewpointHumidityBarometerVisibilityWind DirectionWind SpeedGust SpeedPrecipitationEventsConditions
12:51 AM-22.8 °C-25.6 °C79 %1038.3 hPaNorth (360°)5.6 km/hOvercast
1:11 AM-22 °C-24 °C84 %1028.4 hPaNW (320°)7.4 km/hMostly Cloudy
1:27 AM-21 °C-23 °C84 %1028.4 hPaNE (50°)5.6 km/hScattered Clouds
1:51 AM-20.6 °C-22.8 °C83 %1037.6 hPaWSW (240°)9.3 km/hClear
2:05 AM-21 °C-23 °C84 %1028.1 hPaSW (230°)11.1 km/hScattered Clouds
2:11 AM-22 °C-24 °C84 %1028.1 hPaSW (230°)9.3 km/hMostly Cloudy
2:24 AM-23 °C-26 °C77 %1028.1 hPaWSW (240°)11.1 km/hOvercast
2:51 AM-22.2 °C-25 °C79 %1037.6 hPaCalmOvercast
3:31 AM-22 °C-24 °C84 %1028.1 hPaENE (70°)5.6 km/hOvercast
3:51 AM-21.1 °C-23.9 °C79 %1037.3 hPaCalmMostly Cloudy
4:46 AM-22 °C-24 °C84 %1028.1 hPaWest (270°)9.3 km/hOvercast
4:51 AM-22.8 °C-25.6 °C79 %1037.6 hPaCalmOvercast
5:18 AM-23 °C-26 °C77 %1027.8 hPaWest (280°)5.6 km/hScattered Clouds
5:51 AM-23.3 °C-26.1 °C78 %1037.9 hPaNNE (20°)7.4 km/hClear
5:56 AM-23 °C-26 °C77 %1027.8 hPaNE (50°)7.4 km/hScattered Clouds
6:35 AM-22 °C-24 °C84 %1027.8 hPaCalmMostly Cloudy
6:51 AM-22.2 °C-25 °C79 %1037.9 hPaCalmOvercast
7:51 AM-21.7 °C-23.3 °C87 %1037.6 hPaSW (230°)5.6 km/hOvercast
8:51 AM-20 °C-22.8 °C79 %1038.6 hPaCalmOvercast
8:57 AM-21 °C-23 °C84 %1028.4 hPaCalmOvercast
9:26 AM-19 °C-22 °C78 %1028.1 hPaCalmScattered Clouds
9:51 AM-18.9 °C-20.6 °C87 %1038.3 hPaCalmClear
10:05 AM-19 °C-21 °C85 %1028.4 hPa2.4 kmCalmClear
10:17 AM-19 °C-21 °C85 %1028.4 hPa2.4 kmCalmPartly Cloudy
10:51 AM-17.2 °C-18.9 °C87 %1038.3 hPa2.4 kmCalmClear
11:51 AM-16.1 °C-18.3 °C84 %1037.6 hPa2.4 kmNNW (330°)5.6 km/hClear
12:51 PM-15 °C-17.2 °C84 %1036.6 hPa2.4 kmWNW (290°)7.4 km/hClear
2:51 PM-13.3 °C-16.1 °C80 %1034.5 hPa2.4 kmWest (280°)13 km/hHaze
3:51 PM-12.2 °C-15.6 °C76 %1034.2 hPa2.9 kmCalmHaze
4:51 PM-13.3 °C-16.1 °C80 %1034.9 hPa2.4 kmNNE (30°)7.4 km/hHaze
5:44 PM-13 °C-16 °C79 %1025.7 hPa4 kmCalmHaze
5:51 PM-13.3 °C-16.1 °C80 %1034.9 hPa4 kmCalmHaze
6:51 PM-14.4 °C-16.7 °C83 %1034.9 hPa4 kmWest (260°)5.6 km/hClear
7:51 PM-15.6 °C-17.8 °C84 %1034.2 hPa4 kmCalmClear
8:51 PM-16.1 °C-18.3 °C84 %1034.5 hPa3.2 kmENE (60°)5.6 km/hClear
9:51 PM-15 °C-17.2 °C84 %1033.5 hPa3.2 kmSW (220°)7.4 km/hClear
10:51 PM-16.7 °C-18.9 °C83 %1033.5 hPa3.2 kmCalmScattered Clouds
11:51 PM-16.1 °C-17.8 °C87 %1033.5 hPa3.2 kmCalmPartly Cloudy
Hourly data recorded from KLGU, located 0 kilometers away from Hyde Park, Utah







STORIES FROM OUR PARTNERS